Radiation Dose at Monitoring Post of Fukushima Daini Nuclear Power Station
Date,Time,MP-1(microSv/h),MP-2(microSv/h),MP-3(microSv/h),MP-4(microSv/h),MP-5(microSv/h),MP-6(microSv/h),MP-7(microSv/h),Wind Direction,Wind Velocity(m/s),Rain
2015/02/03,00:00,0.497,0.355,0.576,0.524,-,0.249,0.227,north-northwest,8.8,No
2015/02/03,00:10,0.496,0.355,0.575,0.524,-,0.249,0.228,northwest,5.9,No
2015/02/03,00:20,0.494,0.355,0.577,0.524,-,0.249,0.227,northwest,6.1,No
2015/02/03,00:30,0.495,0.353,0.576,0.525,-,0.249,0.225,northwest,5.1,No
2015/02/03,00:40,0.494,0.354,0.576,0.523,-,0.248,0.226,northwest,4.5,No
2015/02/03,00:50,0.496,0.354,0.575,0.524,-,0.248,0.225,northwest,3.6,No
2015/02/03,01:00,0.496,0.354,0.576,0.525,-,0.249,0.226,northwest,3.1,No
2015/02/03,01:10,0.495,0.354,0.575,0.523,-,0.249,0.228,north-northwest,2.8,No
2015/02/03,01:20,0.496,0.355,0.574,0.524,-,0.248,0.227,north-northwest,2.5,No
2015/02/03,01:30,0.495,0.354,0.576,0.524,-,0.249,0.226,north-northwest,2.8,No
2015/02/03,01:40,0.496,0.355,0.577,0.523,-,0.248,0.225,northwest,2.1,No
2015/02/03,01:50,0.495,0.355,0.575,0.522,-,0.248,0.227,west-northwest,1.5,No
2015/02/03,02:00,0.495,0.354,0.575,0.522,-,0.248,0.227,northwest,1.4,No
2015/02/03,02:10,0.496,0.356,0.577,0.524,-,0.248,0.226,northwest,1.7,No
2015/02/03,02:20,0.494,0.355,0.575,0.525,-,0.249,0.226,north-northwest,1.4,No
2015/02/03,02:30,0.495,0.354,0.575,0.525,-,0.249,0.225,north-northwest,1.8,No
2015/02/03,02:40,0.494,0.353,0.576,0.525,-,0.249,0.225,north-northwest,1.8,No
2015/02/03,02:50,0.494,0.355,0.575,0.524,-,0.248,0.225,north-northwest,1.4,No
2015/02/03,03:00,0.496,0.355,0.576,0.524,-,0.249,0.226,northwest,1.2,No
2015/02/03,03:10,0.496,0.356,0.574,0.523,-,0.249,0.225,west-northwest,3.8,No
2015/02/03,03:20,0.497,0.355,0.576,0.524,-,0.248,0.226,west-northwest,3.1,No
2015/02/03,03:30,0.496,0.354,0.576,0.524,-,0.249,0.226,west-northwest,3.5,No
2015/02/03,03:40,0.494,0.354,0.576,0.524,-,0.248,0.225,northwest,3.3,No
2015/02/03,03:50,0.495,0.354,0.576,0.525,-,0.249,0.226,northwest,3.3,No
2015/02/03,04:00,0.493,0.355,0.576,0.524,-,0.248,0.224,west-northwest,3.0,No
2015/02/03,04:10,0.493,0.353,0.578,0.524,-,0.249,0.224,northwest,2.1,No
2015/02/03,04:20,0.494,0.355,0.575,0.523,-,0.249,0.225,north-northwest,2.1,No
2015/02/03,04:30,0.495,0.354,0.577,0.525,-,0.249,0.225,northwest,3.4,No
2015/02/03,04:40,0.495,0.354,0.576,0.523,-,0.249,0.225,north-northwest,3.7,No
2015/02/03,04:50,0.494,0.355,0.576,0.524,-,0.249,0.225,north-northwest,4.5,No
2015/02/03,05:00,0.493,0.354,0.576,0.525,-,0.249,0.226,north-northwest,4.5,No
2015/02/03,05:10,0.495,0.355,0.576,0.526,-,0.248,0.225,north-northwest,4.8,No
2015/02/03,05:20,0.494,0.354,0.575,0.526,-,0.248,0.226,northwest,4.7,No
2015/02/03,05:30,0.495,0.355,0.575,0.524,-,0.248,0.225,northwest,3.3,No
2015/02/03,05:40,0.493,0.353,0.575,0.525,-,0.248,0.226,northwest,3.4,No
2015/02/03,05:50,0.493,0.354,0.575,0.523,-,0.248,0.227,northwest,4.3,No
2015/02/03,06:00,0.496,0.355,0.576,0.525,-,0.248,0.225,northwest,5.2,No
2015/02/03,06:10,0.494,0.353,0.577,0.525,-,0.247,0.225,northwest,4.7,No
2015/02/03,06:20,0.493,0.354,0.576,0.525,-,0.249,0.224,northwest,3.9,No
2015/02/03,06:30,0.493,0.354,0.575,0.523,-,0.249,0.226,north-northwest,2.5,No
2015/02/03,06:40,0.494,0.354,0.576,0.523,-,0.248,0.226,north,3.1,No
2015/02/03,06:50,0.495,0.355,0.576,0.524,-,0.248,0.226,north-northwest,3.3,No
2015/02/03,07:00,0.494,0.356,0.577,0.524,-,0.247,0.226,north-northwest,3.1,No
2015/02/03,07:10,0.495,0.353,0.575,0.525,-,0.248,0.226,northwest,3.1,No
2015/02/03,07:20,0.495,0.354,0.576,0.523,-,0.248,0.226,northwest,3.3,No
2015/02/03,07:30,0.493,0.355,0.575,0.524,-,0.249,0.226,northwest,2.7,No
2015/02/03,07:40,0.494,0.354,0.576,0.523,-,0.248,0.226,northwest,3.0,No
2015/02/03,07:50,0.495,0.353,0.576,0.524,-,0.247,0.227,northwest,3.9,No
2015/02/03,08:00,0.496,0.354,0.576,0.524,-,0.248,0.227,north-northwest,2.9,No
2015/02/03,08:10,0.494,0.355,0.576,0.525,-,0.249,0.226,north,3.4,No
2015/02/03,08:20,0.495,0.355,0.577,0.525,-,0.248,0.225,north,3.3,No
2015/02/03,08:30,0.496,0.355,0.577,0.525,-,0.248,0.225,north,3.3,No
2015/02/03,08:40,0.497,0.355,0.578,0.525,-,0.249,0.225,north-northwest,4.3,No
2015/02/03,08:50,0.495,0.354,0.576,0.524,-,0.248,0.227,north-northwest,3.8,No
2015/02/03,09:00,0.495,0.356,0.576,0.526,-,0.249,0.225,north-northwest,2.7,No
2015/02/03,09:10,0.498,0.356,0.576,0.525,-,0.247,0.225,north,1.6,No
2015/02/03,09:20,0.494,0.355,0.577,0.526,-,0.248,0.225,-,CALM,No
2015/02/03,09:30,0.495,0.354,0.577,0.526,-,0.250,0.225,north,1.0,No
2015/02/03,09:40,0.495,0.354,0.578,0.526,-,0.249,0.225,north-northwest,2.1,No
2015/02/03,09:50,0.497,0.353,0.576,0.526,-,0.248,0.226,north-northwest,2.0,No
2015/02/03,10:00,0.495,0.355,0.577,0.524,-,0.247,0.225,north-northwest,2.0,No
2015/02/03,10:10,0.495,0.354,0.577,0.523,-,0.248,0.225,north-northwest,2.2,No
2015/02/03,10:20,0.496,0.355,0.577,0.526,-,0.247,0.225,west-northwest,2.7,No
2015/02/03,10:30,0.495,0.356,0.578,0.525,-,0.248,0.226,west-northwest,2.5,No
2015/02/03,10:40,0.494,0.355,0.577,0.527,-,0.248,0.225,west-northwest,3.0,No
2015/02/03,10:50,0.496,0.357,0.578,0.527,-,0.248,0.226,west-northwest,2.8,No
2015/02/03,11:00,0.494,0.355,0.577,0.526,-,0.248,0.225,north-northwest,2.4,No
2015/02/03,11:10,0.496,0.356,0.578,0.527,-,0.248,0.226,west-northwest,4.5,No
2015/02/03,11:20,0.497,0.354,0.579,0.525,-,0.250,0.226,west-northwest,4.0,No
2015/02/03,11:30,0.496,0.356,0.577,0.526,-,0.249,0.227,northwest,6.3,No
2015/02/03,11:40,0.495,0.356,0.579,0.527,-,0.248,0.225,northwest,4.8,No
2015/02/03,11:50,0.497,0.356,0.578,0.528,-,0.249,0.224,northwest,5.3,No
2015/02/03,12:00,0.494,0.357,0.578,0.526,-,0.249,0.225,west-northwest,5.1,No
2015/02/03,12:10,0.497,0.355,0.580,0.527,-,0.249,0.225,west-northwest,6.2,No
2015/02/03,12:20,0.497,0.356,0.579,0.529,-,0.248,0.225,west-northwest,7.4,No
2015/02/03,12:30,0.497,0.358,0.580,0.529,-,0.249,0.226,northwest,7.4,No
2015/02/03,12:40,0.498,0.357,0.579,0.529,-,0.249,0.226,northwest,6.1,No
2015/02/03,12:50,0.500,0.357,0.579,0.530,-,0.249,0.226,northwest,3.1,No
2015/02/03,13:00,0.499,0.358,0.579,0.528,-,0.249,0.227,northwest,3.9,No
2015/02/03,13:10,0.501,0.358,0.580,0.530,-,0.250,0.226,west-northwest,5.6,No
2015/02/03,13:20,0.501,0.358,0.580,0.531,-,0.251,0.226,west-northwest,3.9,No
2015/02/03,13:30,0.500,0.357,0.579,0.531,-,0.250,0.227,northwest,5.9,No
2015/02/03,13:40,0.502,0.358,0.582,0.529,-,0.250,0.225,northwest,5.5,No
2015/02/03,13:50,0.500,0.358,0.582,0.531,-,0.249,0.227,west-northwest,4.9,No
2015/02/03,14:00,0.499,0.359,0.581,0.531,-,0.250,0.226,northwest,5.2,No
2015/02/03,14:10,0.503,0.358,0.582,0.533,-,0.250,0.226,north-northwest,5.6,No
2015/02/03,14:20,0.502,0.360,0.583,0.532,-,0.249,0.227,north-northwest,6.4,No
2015/02/03,14:30,0.500,0.359,0.581,0.531,-,0.251,0.227,north-northwest,4.9,No
2015/02/03,14:40,0.504,0.358,0.583,0.532,-,0.250,0.227,north-northwest,6.7,No
2015/02/03,14:50,0.502,0.359,0.582,0.532,-,0.250,0.226,north,5.5,No
2015/02/03,15:00,0.503,0.359,0.582,0.533,-,0.251,0.225,north,3.9,No
2015/02/03,15:10,0.503,0.358,0.583,0.532,-,0.250,0.227,north,5.1,No
2015/02/03,15:20,0.505,0.360,0.583,0.532,-,0.251,0.226,north-northwest,6.5,No
2015/02/03,15:30,0.502,0.359,0.585,0.533,-,0.250,0.228,north,6.0,No
2015/02/03,15:40,0.504,0.360,0.585,0.533,-,0.251,0.226,north,5.1,No
2015/02/03,15:50,0.506,0.360,0.585,0.532,-,0.252,0.228,north,4.1,No
2015/02/03,16:00,0.503,0.359,0.585,0.532,-,0.250,0.228,north,2.8,No
2015/02/03,16:10,0.503,0.360,0.584,0.533,-,0.250,0.228,north,3.3,No
2015/02/03,16:20,0.503,0.360,0.585,0.532,-,0.250,0.227,north,3.3,No
2015/02/03,16:30,0.505,0.359,0.584,0.533,-,0.251,0.227,north,3.1,No
2015/02/03,16:40,0.503,0.359,0.584,0.533,-,0.250,0.228,north,2.8,No
2015/02/03,16:50,0.504,0.359,0.585,0.534,-,0.251,0.227,north,4.3,No
2015/02/03,17:00,0.506,0.359,0.585,0.534,-,0.251,0.227,north-northwest,3.4,No
2015/02/03,17:10,0.504,0.360,0.585,0.532,-,0.251,0.227,west-northwest,2.1,No
2015/02/03,17:20,0.504,0.359,0.584,0.532,-,0.251,0.228,west-northwest,2.2,No
2015/02/03,17:30,0.504,0.358,0.585,0.533,-,0.251,0.227,west-northwest,2.6,No
2015/02/03,17:40,0.505,0.360,0.585,0.533,-,0.251,0.227,west,3.2,No
2015/02/03,17:50,0.503,0.360,0.586,0.532,-,0.251,0.228,west-northwest,4.2,No
2015/02/03,18:00,0.503,0.359,0.584,0.533,-,0.252,0.226,west-northwest,3.6,No
2015/02/03,18:10,0.504,0.360,0.585,0.532,-,0.252,0.227,west-northwest,2.4,No
2015/02/03,18:20,0.504,0.359,0.585,0.533,-,0.252,0.227,west-northwest,3.4,No
2015/02/03,18:30,0.504,0.359,0.585,0.534,-,0.251,0.227,west-northwest,3.6,No
2015/02/03,18:40,0.503,0.359,0.585,0.533,-,0.251,0.226,northwest,2.3,No
2015/02/03,18:50,0.504,0.359,0.586,0.534,-,0.251,0.228,north-northwest,2.0,No
2015/02/03,19:00,0.505,0.360,0.587,0.534,-,0.250,0.227,west-northwest,1.9,No
2015/02/03,19:10,0.503,0.359,0.585,0.535,-,0.252,0.228,west-northwest,1.2,No
2015/02/03,19:20,0.504,0.360,0.584,0.534,-,0.252,0.227,northwest,1.4,No
2015/02/03,19:30,0.504,0.360,0.586,0.534,-,0.253,0.227,northwest,0.8,No
2015/02/03,19:40,0.505,0.359,0.586,0.534,-,0.251,0.228,west-northwest,1.5,No
2015/02/03,19:50,0.504,0.358,0.586,0.534,-,0.252,0.226,west-northwest,2.1,No
2015/02/03,20:00,0.504,0.359,0.586,0.536,-,0.251,0.227,west-northwest,4.0,No
2015/02/03,20:10,0.505,0.361,0.585,0.534,-,0.251,0.228,west-northwest,1.9,No
2015/02/03,20:20,0.505,0.359,0.585,0.536,-,0.252,0.228,west-northwest,2.1,No
2015/02/03,20:30,0.506,0.360,0.587,0.534,-,0.251,0.228,northwest,1.7,No
2015/02/03,20:40,0.505,0.359,0.587,0.534,-,0.252,0.227,west-northwest,3.1,No
2015/02/03,20:50,0.506,0.360,0.586,0.536,-,0.250,0.227,west-northwest,4.1,No
2015/02/03,21:00,0.504,0.359,0.588,0.534,-,0.250,0.229,west,3.9,No
2015/02/03,21:10,0.505,0.359,0.588,0.535,-,0.251,0.227,west,3.8,No
2015/02/03,21:20,0.505,0.361,0.587,0.535,-,0.251,0.227,west,4.6,No
2015/02/03,21:30,0.505,0.360,0.587,0.532,-,0.251,0.228,west,3.9,No
2015/02/03,21:40,0.504,0.360,0.585,0.535,-,0.251,0.227,west,4.8,No
2015/02/03,21:50,0.504,0.359,0.587,0.536,-,0.252,0.226,west,3.7,No
2015/02/03,22:00,0.505,0.360,0.587,0.536,-,0.251,0.227,west-northwest,5.0,No
2015/02/03,22:10,0.504,0.360,0.586,0.533,-,0.253,0.227,west-northwest,3.3,No
2015/02/03,22:20,0.504,0.359,0.585,0.536,-,0.251,0.226,west-northwest,2.7,No
2015/02/03,22:30,0.506,0.359,0.587,0.535,-,0.252,0.227,west,3.3,No
2015/02/03,22:40,0.504,0.359,0.587,0.535,-,0.252,0.227,west,3.4,No
2015/02/03,22:50,0.505,0.359,0.586,0.533,-,0.252,0.228,west,3.6,No
2015/02/03,23:00,0.506,0.360,0.586,0.534,-,0.251,0.226,west-northwest,3.4,No
2015/02/03,23:10,0.506,0.360,0.585,0.535,-,0.250,0.228,west-northwest,4.1,No
2015/02/03,23:20,0.505,0.359,0.585,0.535,-,0.250,0.227,northwest,2.4,No
2015/02/03,23:30,0.506,0.359,0.586,0.535,-,0.251,0.228,west-northwest,1.9,No
2015/02/03,23:40,0.507,0.359,0.587,0.534,-,0.251,0.226,west-northwest,2.5,No
2015/02/03,23:50,0.505,0.358,0.586,0.535,-,0.252,0.228,west,2.2,No
